Home   Weather   Dushanbe   Past weeks

Flag for Tajikistan Past Weather in Dushanbe, Tajikistan — Yesterday and Last 2 Weeks

Now
52 °F

Clear.


Feels Like: 52 °F
Forecast: 51 / 76 °F
Wind: 1 mph from South

Location: Dushanbe Airport

Current Time: Apr 24, 2017 at 3:04:47 am

Latest Report: Apr 24, 2017 at 2:30 am


Visibility: N/A

Pressure: 30.07 "Hg (27.21 "Hg at 832m altitude)

Humidity: 82%

Dew Point: 46 °F

Location of DushanbeLocation

Past Weather in Dushanbe — Graph

°F

Dushanbe Temperature Yesterday

Maximum temperature yesterday: 73 °F (at 3:00 pm)
Minimum temperature yesterday: 50 °F (at 4:30 am)
Average temperature yesterday: 62 °F

High & Low Weather Summary for the Past Weeks

 TemperatureHumidityPressure
High88 °F (Apr 16, 2:00 pm)94% (Apr 19, 12:00 am)30.36 "Hg (Apr 19, 12:00 am)
Low43 °F (Apr 9, 5:30 am)16% (Apr 9, 1:00 pm)29.83 "Hg (Apr 20, 3:30 am)
Average66 °F53%30.07 "Hg
* Reported Apr 9 1:00 am — Apr 24 1:30 am, Dushanbe, Weather by CustomWeather, © 2017

Note: Actual official high and low records may vary slightly from our data, if they occured in-between our weather recording intervals... More about our weather records

Advertising

Dushanbe Weather History for the Previous 24 Hours

Scroll right to see more
 ConditionsComfort  
Time TempWeatherWind HumidityBarometerVisibility
1:30 am
Mon, Apr 24
57 °FClear.1 mph67%30.07 "HgN/A
1:00 am55 °FClear.1 mph72%30.07 "HgN/A
12:30 am57 °FClear.1 mph67%30.09 "HgN/A
12:00 am54 °FClear.3 mph77%30.09 "HgN/A
11:30 pm
Sun, Apr 23
59 °FClear.3 mph63%30.09 "HgN/A
11:00 pm59 °FClear.1 mph68%30.12 "Hg6 mi
10:30 pm57 °FClear.1 mph67%30.12 "Hg6 mi
10:00 pm63 °FClear.1 mph56%30.12 "Hg6 mi
9:30 pm63 °FClear.No wind56%30.12 "HgN/A
9:00 pm64 °FClear.1 mph52%30.12 "HgN/A
8:30 pm64 °FClear.3 mph52%30.12 "HgN/A
8:00 pm66 °FClear.3 mph46%30.12 "HgN/A
7:30 pm68 °FClear.3 mph40%30.09 "HgN/A
7:00 pm68 °FPassing clouds.3 mph40%30.09 "HgN/A
6:00 pm70 °FPassing clouds.6 mph40%30.12 "HgN/A
5:30 pm72 °FPassing clouds.6 mph38%30.12 "HgN/A
5:00 pm72 °FPassing clouds.6 mph41%30.12 "HgN/A
4:30 pm72 °FPassing clouds.8 mph38%30.12 "HgN/A
4:00 pm72 °FPassing clouds.6 mph41%30.12 "HgN/A
3:30 pm72 °FPassing clouds.8 mph38%30.12 "HgN/A
3:00 pm73 °FPassing clouds.3 mph38%30.15 "HgN/A
2:30 pm72 °FPassing clouds.3 mph41%30.15 "HgN/A
2:00 pm72 °FPassing clouds.3 mph50%30.15 "HgN/A
1:30 pm72 °FPassing clouds.6 mph50%30.18 "HgN/A
12:30 pm70 °FPassing clouds.8 mph40%30.18 "HgN/A
12:00 pm70 °FPassing clouds.6 mph46%30.18 "HgN/A
11:30 am68 °FPassing clouds.6 mph53%30.18 "HgN/A
11:00 am68 °FPassing clouds.1 mph49%30.18 "HgN/A
10:30 am66 °FClear.1 mph52%30.21 "HgN/A
10:00 am64 °FClear.1 mph60%30.21 "HgN/A
9:30 am63 °FClear.1 mph64%30.21 "HgN/A
9:00 am61 °FClear.1 mph68%30.18 "HgN/A
8:30 am59 °FClear.1 mph72%30.18 "HgN/A
7:30 am55 °FClear.3 mph77%30.18 "HgN/A
7:00 am55 °FClear.No wind77%30.18 "HgN/A
6:30 am52 °FClear.1 mph82%30.18 "HgN/A
6:00 am52 °FClear.3 mph82%30.15 "HgN/A
5:30 am50 °FClear.3 mph88%30.15 "HgN/A
5:00 am52 °FClear.No wind82%30.15 "HgN/A
4:30 am50 °FClear.No wind88%30.15 "HgN/A
4:00 am52 °FClear.3 mph82%30.15 "HgN/A
3:00 am52 °FClear.3 mph88%30.15 "HgN/A
Weather by CustomWeather, © 2017

See weather overviewHow to use our weather pages